EW8371 Weather Reports


Display with metric or nautical units.
time (UTC)temp
F
wind
direction
speed
MPH
gust
MPH
rain 1hr
in
rain 24hr
in
rain mn
in
humidity
%
barometer
mb
20260506164551 57 180 5.0 9.0 0.08 0.31 0.10 15 1002.3
20260506163053 57 221 2.0 8.0 0.08 0.28 0.08 13 1002.3
20260506161546 57 218 3.0 9.0 0.07 0.28 0.07 12 1002.5
20260506160042 57 210 1.0 4.0 0.04 0.25 0.04 11 1002.7
20260506154540 57 171 4.0 6.0 0.02 0.23 0.02 11 1002.6
20260506153042 56 191 3.0 6.0 0.02 0.21 0.21 12 1002.6
20260506151534 56 201 3.0 8.0 0.04 0.21 0.21 12 1002.3
20260506150040 55 180 1.0 7.0 0.06 0.21 0.21 13 1002.5
20260506144550 55 174 1.0 4.0 0.08 0.21 0.21 13 1002.5
20260506143034 55 167 3.0 6.0 0.09 0.19 0.19 14 1002.8
20260506141529 55 181 2.0 7.0 0.08 0.17 0.17 14 1003.0
20260506140040 54 183 4.0 8.0 0.06 0.15 0.15 13 1003.4
20260506134532 54 172 6.0 10.0 0.03 0.12 0.12 12 1003.7
20260506133025 53 135 3.0 6.0 0.02 0.10 0.10 13 1003.6
20260506131532 52 144 0.0 0.0 0.01 0.09 0.09 16 1003.3
20260506130022 51 140 0.0 0.0 0.01 0.09 0.09 17 1003.3
20260506124520 51 144 0.0 0.0 0.02 0.09 0.09 17 1003.2
20260506123028 50 132 0.0 0.0 0.01 0.08 0.08 20 1003.4
20260506121516 50 132 0.0 0.0 0.03 0.08 0.08 20 1003.6
20260506120024 49 25 0.0 0.0 0.04 0.08 0.08 23 1003.4
20260506114519 49 78 0.0 0.0 0.03 0.07 0.07 23 1003.9
20260506113014 49 5 0.0 0.0 0.04 0.07 0.07 25 1004.2
20260506111511 49 5 0.0 0.0 0.02 0.05 0.05 26 1004.1
20260506110010 49 341 0.0 3.0 0.02 0.04 0.04 28 1004.1
20260506104508 49 14 0.0 4.0 0.02 0.04 0.04 29 1003.9
20260506103008 49 318 0.0 4.0 0.02 0.03 0.03 30 1003.7
20260506101505 49 349 1.0 4.0 0.02 0.03 0.03 33 1003.7
20260506100015 49 286 0.0 0.0 0.01 0.02 0.02 35 1003.8
20260506094502 49 19 0.0 0.0 0.01 0.02 0.02 37 1003.8
20260506093001 49 66 0.0 2.0 0.00 0.08 0.01 38 1003.7
20260506091557 49 52 0.0 2.0 0.00 0.08 0.01 39 1003.5
20260506090057 49 14 0.0 3.0 0.00 0.08 0.01 41 1003.5
20260506084559 49 333 1.0 4.0 0.00 0.08 0.01 42 1003.5
20260506083058 49 346 1.0 4.0 0.00 0.08 0.01 44 1003.6
20260506081607 49 34 3.0 8.0 0.00 0.08 0.01 45 1004.0
20260506073043 50 13 3.0 6.0 0.00 0.08 0.01 54 1004.3
20260506071543 50 346 2.0 6.0 0.00 0.08 0.01 56 1004.4
20260506061543 51 346 0.0 0.0 0.00 0.08 0.01 60 1004.8
20260506044531 53 341 0.0 0.0 0.00 0.08 0.01 69 1005.7
20260506043022 54 341 0.0 0.0 0.00 0.08 0.01 70 1005.8
20260506041521 54 350 0.0 0.0 0.00 0.08 0.01 70 1005.9
20260506040018 54 30 0.0 1.0 0.00 0.08 0.01 71 1005.8
20260506034516 54 28 0.0 3.0 0.00 0.08 0.01 71 1006.2
20260506033023 54 49 0.0 0.0 0.00 0.08 0.01 70 1006.1
20260506031527 54 74 0.0 1.0 0.00 0.08 0.01 70 1006.1
20260506030045 55 11 0.0 1.0 0.00 0.08 0.01 69 1006.1
20260506024550 55 336 2.0 5.0 0.00 0.08 0.01 69 1006.1
20260506023040 55 330 3.0 10.0 0.00 0.08 0.01 68 1005.9
20260506021539 55 22 4.0 8.0 0.00 0.08 0.01 69 1005.9
20260506020037 56 38 1.0 9.0 0.00 0.08 0.01 68 1006.0
20260506014534 56 50 4.0 13.0 0.00 0.08 0.01 69 1005.7
20260506013026 58 17 7.0 15.0 0.00 0.08 0.01 67 1005.3
20260506011523 60 343 0.0 0.0 0.00 0.08 0.01 57 1004.7
20260506010044 60 186 1.0 3.0 0.00 0.08 0.01 62 1004.3
20260506004516 61 162 1.0 3.0 0.00 0.08 0.01 67 1004.0
20260506003011 61 200 0.0 6.0 0.00 0.08 0.01 68 1003.7
20260506001509 62 200 2.0 4.0 0.00 0.08 0.01 69 1003.4
20260506000013 62 176 1.0 4.0 0.00 0.08 0.01 70 1003.4
20260505234508 62 184 3.0 5.0 0.00 0.08 0.01 70 1003.5
20260505233008 63 152 2.0 7.0 0.00 0.08 0.01 70 1003.2
20260505231509 63 176 2.0 5.0 0.00 0.08 0.01 70 1002.9
20260505230004 63 195 2.0 6.0 0.00 0.08 0.01 70 1002.9
20260505224503 63 185 2.0 7.0 0.00 0.08 0.01 70 1002.7
20260505223001 63 190 3.0 6.0 0.00 0.08 0.01 69 1002.7
20260505221601 63 180 3.0 7.0 0.00 0.08 0.01 69 1002.6
20260505221502 63 181 3.0 7.0 0.00 0.08 0.01 69 1002.6
20260505220100 62 198 3.0 10.0 0.00 0.08 0.01 70 1002.9
20260505214632 62 132 6.0 13.0 0.00 0.08 0.01 70 1003.0
20260505213059 62 184 3.0 6.0 0.00 0.08 0.01 68 1003.0
20260505211555 62 180 4.0 8.0 0.01 0.08 0.01 69 1002.9
20260505210053 62 137 6.0 11.0 0.01 0.08 0.01 69 1003.4
20260505204550 62 244 8.0 21.0 0.01 0.08 0.01 69 1002.9
20260505203044 65 24 7.0 16.0 0.01 0.08 0.01 68 1002.4
20260505201549 70 319 11.0 25.0 0.00 0.07 0.00 54 1001.5
20260505200038 75 176 3.0 14.0 0.00 0.07 0.00 43 1001.0
20260505194538 75 165 7.0 17.0 0.00 0.07 0.00 42 1000.5
20260505193034 74 178 11.0 25.0 0.00 0.07 0.00 42 1000.4
20260505191532 75 189 13.0 21.0 0.00 0.07 0.00 41 1000.7
20260505190035 72 146 5.0 18.0 0.00 0.07 0.00 49 1000.8
20260505184526 74 211 7.0 14.0 0.00 0.07 0.00 43 1001.3
20260505183023 74 222 12.0 25.0 0.00 0.07 0.00 42 1001.3
20260505181520 75 155 13.0 25.0 0.00 0.07 0.00 41 1001.2
20260505180017 74 221 11.0 20.0 0.00 0.07 0.00 43 1001.0
20260505174516 76 222 8.0 24.0 0.00 0.07 0.00 39 1000.9
20260505173014 77 197 9.0 18.0 0.00 0.07 0.00 39 1001.1
20260505171512 76 173 11.0 27.0 0.00 0.07 0.00 39 1000.9
20260505170016 76 191 9.0 27.0 0.00 0.07 0.00 36 1001.1